Location: Peach Mountain Observatory
(42.3967°N, 83.9367°W)
Time: 13:20:39
(UTC-05:00)

S-56A Canister/Altair - Pass Details

Date: 29 January 2020
Orbit: 633 x 2499 km, 38.9° (Epoch: 17 February)

Event Time Altitude Azimuth Distance (km) Brightness Sun altitude
Rises 17:13:51 0° 207° (SSW) 5,391 12.9 4.4°
Reaches altitude 10° 17:18:47 10° 194° (SSW) 4,050 11.9 3.6°
Maximum altitude 17:25:53 22° 150° (SSE) 2,683 10.3 2.4°
Drops below altitude 10° 17:31:21 10° 103° (ESE) 3,016 10.1 1.5°
Sets 17:34:21 0° 88° (E) 3,718 10.4 1.0°
